Regional Weather Roundup
Issued by NWS Charleston, SC

Current Version | Previous Version | Text Only | Print | Product List | Glossary Off
Versions: 1 2 3 4 5 6 7 8 9 10 11 12 13 14 15 16 17 18 19 20 21 22 23 24 25 26 27 28 29 30 31 32 33 34 35 36 37 38 39 40 41 42 43 44 45 46 47 48 49 50

000
ASUS42 KCHS 201827
RWRCHS

REGIONAL WEATHER ROUNDUP
NATIONAL WEATHER SERVICE CHARLESTON SC
100 PM EST MON NOV 20 2017

NOTE: "FAIR" INDICATES FEW OR NO CLOUDS BELOW 12,000 FEET WITH NO
SIGNIFICANT WEATHER AND/OR OBSTRUCTIONS TO VISIBILITY.

NOT ALL STATIONS ARE QUALITY CONTROLLED. USE DATA WITH CAUTION...
ESPECIALLY DEWPOINT OBSERVATIONS.

SCZ027-030-031-034>040-042>050-201900-
...SOUTHEAST SOUTH CAROLINA...

CITY           SKY/WX    TMP DP  RH WIND       PRES   REMARKS
N CHARLESTON   SUNNY     59  30  33 N5        30.24F
6HR MIN TEMP:  36; 6HR MAX TEMP:  60;

WATERFRONT PRK NOT AVBL
JOHNS ISLAND   FAIR      59  32  36 NE5       30.24F
PINOPOLIS        N/A     52  36  54 VRB3      30.17F
MONCKS CORNER  FAIR      57  32  38 NE3       30.24S
SUMMERVILLE    FAIR      59  28  31 NE3       30.25F
BEAUFORT MCAS  MOSUNNY   59  34  39 E6        30.25F
6HR MIN TEMP:  38; 6HR MAX TEMP:  59;

BEAUFORT ARPT  FAIR      57  34  41 NE6       30.24S HAZE
HILTON HEAD IS SUNNY     59  43  55 NE7       30.25
WALTERBORO     CLEAR     59  32  36 CALM      30.25F
ALLENDALE      FAIR      59  30  33 CALM      30.23F

...SOUTHERN MIDLANDS AND PEE DEE...

CITY           SKY/WX    TMP DP  RH WIND       PRES   REMARKS
GEORGETOWN     FAIR      57  30  35 NE3       30.25F
KINGSTREE      FAIR      59  21  23 N6        30.24F
ORANGEBURG     SUNNY     58  29  33 NE7       30.24F
6HR MIN TEMP:  31; 6HR MAX TEMP:  58; 6HR PCP: TRACE;

BARNWELL         N/A     61  30  31 CALM      30.24F
AIKEN          FAIR      55  28  35 CALM      30.26F
MANNING        FAIR      59   3  10 MISG      30.24F
COLUMBIA       MOSUNNY   58  28  32 CALM      30.24F
6HR MIN TEMP:  30; 6HR MAX TEMP:  59;

SUMTER         SUNNY     59  26  29 NE5       30.23F
6HR MIN TEMP:  31; 6HR MAX TEMP:  59;

FLORENCE       SUNNY     59  25  27 N8        30.25F
6HR MIN TEMP:  32; 6HR MAX TEMP:  59;

MYRTLE BEACH   SUNNY     58  28  32 N8        30.25F
N MYRTLE BEACH SUNNY     59  27  29 NE10      30.23F
6HR MIN TEMP:  35; 6HR MAX TEMP:  59;


$$

GAZ063-065-086>088-099>101-113>116-118-119-134>141-150-201900-
...SOUTHEAST GEORGIA...

CITY           SKY/WX    TMP DP  RH WIND       PRES   REMARKS
SAVANNAH ARPT  PTSUNNY   62  29  28 E8        30.24F
6HR MIN TEMP:  34; 6HR MAX TEMP:  63;

HUNTER AAF     SUNNY     62  37  40 E9        30.21F
6HR MIN TEMP:  41; 6HR MAX TEMP:  62;

FORT STEWART   SUNNY     62  38  41 NE9       30.20F
6HR MIN TEMP:  35; 6HR MAX TEMP:  63;

STATESBORO     SUNNY     63  24  22 E7        30.23F
SYLVANIA       CLEAR     61  33  35 E6        30.24F
CLAXTON        FAIR      63  33  32 NE5       30.22F

...CSRA...CENTRAL AND FAR SOUTHEAST GEORGIA...

CITY           SKY/WX    TMP DP  RH WIND       PRES   REMARKS
THOMSON        SUNNY     56  28  33 SE5       30.28F
AUGUSTA-BUSH   SUNNY     60  27  28 VRB6      30.23F
6HR MIN TEMP:  28; 6HR MAX TEMP:  60;

AUGUSTA-DANIEL SUNNY     58  28  32 NE7       30.24F
SWAINSBORO     FAIR      61  32  33 CALM      30.23F
VIDALIA        SUNNY     63  36  36 E5        30.22F
EASTMAN        FAIR      63  12  13 E6        30.23F
HAZLEHURST     FAIR      63  14  15 E5        30.20F
ALMA           SUNNY     64  40  41 VRB5      30.19F
6HR MIN TEMP:  36; 6HR MAX TEMP:  65;

WAYCROSS       SUNNY     66  43  43 SE7       30.18F
JESUP          FAIR      68  46  45 SE8       30.19F
BAXLEY         FAIR      63  34  34 E7        30.19F
BRUNSWICK      MOSUNNY   64  48  55 NE16      30.20F
SAINT SIMONS   SUNNY     67  51  56 NE14      30.19F
6HR MIN TEMP:  42; 6HR MAX TEMP:  67;


$$

SCZ027-028-034-036>038-045-046-048>050-GAZ119-141-201900-
...LAKE AND SUPPLEMENTAL COASTAL OBSERVATIONS...

STATION/POSITION TIME  TEMP    WIND        PRES    WAVE   SWELL
                       AIR SEA DIR/SP/G            HT/PER HT/PER/DIR
                 (UTC) (F)     (DEG/KT/KT) (MB)    (FT/S) (FT/S/D)
WINYAH BAY       1745   54      80/  6     1024.0F
LAKE MURRAY      1820   57      CALM  /  2 1023.0
ACE BASIN NERRS  1745   60      60/  3     1024.0F
FORT PULASKI     1800   56 61   50/ 11/ 14 1024.3
SAPELO ISLAND    1800   64      60/ 11     1023.0

$$

ANZ835-935-AMZ111-154-330-350-352-354-370-450-454-472-201900-
...C-MAN AND BUOY OBSERVATIONS...

STATION/POSITION TIME  TEMP    WIND        PRES    WAVE   SWELL
                       AIR SEA DIR/SP/G            HT/PER HT/PER/DIR
                 (UTC) (F)     (DEG/KT/KT) (MB)    (FT/S) (FT/S/D)
BUOY 41004       1810   59 74   50/ 12/ 17 1023.3
BUOY 41008       1750   62 68   70/ 14/ 17 1022.6F   3/ 6   2/130/ 8
FOLLY BEACH CMAN 1800   55      70/ 10/ 12 1024.8F
CAPERS NEARSHORE 1808   54 62   60/ 10/ 16 1023.9F
FRIPP NEARSHORE  1808   56 62   40/ 12/ 21 1023.0S


STATION/POSITION TIME  TEMP    WIND        PRES    WAVE   SWELL
                       AIR SEA DIR/SP/G            HT/PER HT/PER/DIR
                 (UTC) (F)     (DEG/KT/KT) (MB)    (FT/S) (FT/S/D)
5E ST. MARYS GA  1800      68                N/A     4/ 5
FRYING PAN BUOY  1800   54 69   20/ 14/ 17 1023.5
BUOY 41025       1810   51 66  340/ 10/ 14 1023.7
CAPE LOOKOUT NC  1800          330/  6/  8 1024.1F
BUOY 41002       1750   66 77   20/ 14/ 17 1021.3F   6/ 7   5/330/ 7
BUOY 41010       NOT AVBL
ST AUGUSTINE FL  1800   70 67   70/ 13/ 14 1021.1F


$$




USA.gov is the U.S. government's official web portal to all federal, state and local government web resources and services.